Regional Weather Roundup
Issued by NWS

Home | Current Version | Previous Version | Text Only | Print | Product List | Glossary On
Versions: 1 2 3 4 5 6 7 8 9 10 11 12 13 14 15 16 17 18 19 20 21 22 23 24 25 26 27 28 29 30 31 32 33 34 35 36 37 38 39 40 41 42 43 44 45 46 47 48 49 50
000
ASUS43 KMKX 270228
RWRWI

WISCONSIN REGIONAL WEATHER ROUNDUP
NATIONAL WEATHER SERVICE MILWAUKEE/SULLIVAN WI
900 PM CDT TUE MAY 26 2015

NOTE: "FAIR" INDICATES FEW OR NO CLOUDS BELOW 12,000 FEET WITH NO
SIGNIFICANT WEATHER AND/OR OBSTRUCTIONS TO VISIBILITY.

WIZ001-002-006>008-014>016-023>028-270300-
NORTHWEST WISCONSIN

CITY           SKY/WX    TMP DP  RH WIND       PRES   REMARKS
SUPERIOR ARPT  CLOUDY    51  50  96 CALM      29.77S
ASHLAND        CLOUDY    52  52 100 N6        29.76S
HAYWARD        LGT RAIN  54  52  93 N5        29.76R
SIREN          CLOUDY    56  55  97 NW3       29.76S
CUMBERLAND     LGT RAIN  54  52  94 N8        29.74S
RICE LAKE      RAIN      56  54  93 N7        29.75S
CHETEK         LGT RAIN  56  56  99 NW5       29.73S
LADYSMITH      LGT RAIN  56  55  95 N12       29.73S
EAU CLAIRE     RAIN      58  56  93 NW5       29.72R
MENOMONIE      LGT RAIN  58  58  99 CALM      29.73S
NEW RICHMOND   RAIN      56  56 100 NW5       29.76S
OSCEOLA        DRIZZLE   57  57 100 NW3       29.79S
$$

WIZ003>005-009-010-017-018-270300-
NORTH CENTRAL WISCONSIN

CITY           SKY/WX    TMP DP  RH WIND       PRES   REMARKS
MANITOWISH WTR CLOUDY    56  56 100 N5        29.71S
ARBOR VITAE    RAIN      59  58  95 N7        29.70S
WOODRUFF       RAIN      59  58  95 N7        29.70S
RHINELANDER    LGT RAIN  61  59  93 N7        29.68F
EAGLE RIVER    RAIN      59  59  99 N6        29.69S
LAND O LAKES   CLOUDY    58  58  99 N7        29.71F FOG
PHILLIPS       DRIZZLE   57  57  99 N5        29.69R
TOMAHAWK       RAIN      59  58  96 N7        29.67F
MEDFORD        DRIZZLE   61  59  95 N12       29.65S
MERRILL        CLOUDY    61  61 100 N6        29.65S
$$

WIZ029-030-035-036-043>047-270300-
CENTRAL WISCONSIN

CITY           SKY/WX    TMP DP  RH WIND       PRES   REMARKS
WAUSAU         LGT RAIN  63  62  97 N3        29.61F
MOSINEE        LGT RAIN  63  63 100 N5        29.63F
MARSHFIELD     LGT RAIN  63  60  90 NE9       29.62S
STEVENS POINT  CLOUDY    61  61  99 NE3       29.62S
WAUPACA        CLOUDY    67  67  98 SE3       29.61F
WAUTOMA        CLOUDY    64  63  94 SW20G26   29.65R
WISC RAPIDS    LGT RAIN  65  62  90 NE5       29.61F
CAMP DOUGLAS   MOCLDY   N/A N/A N/A W22         N/A
$$

WIZ011>013-019>022-031-037>040-048>050-270300-
NORTHEAST WISCONSIN

CITY           SKY/WX    TMP DP  RH WIND       PRES   REMARKS
ANTIGO         CLOUDY    60  60  99 N9        29.63F
SHAWANO        CLOUDY    67  66  94 SE7       29.61S FOG
OCONTO         CLOUDY    61  61 100 SE7       29.62F
STURGEON BAY   CLOUDY    54  50  87 S9        29.67S
GREEN BAY      LGT RAIN  68  63  84 S14       29.63S
MANITOWOC      MOCLDY    53  52  96 SE6       29.67S
APPLETON       MOCLDY    66  64  94 S13G18    29.63S
CLINTONVILLE   LGT RAIN  64  63  94 CALM      29.61S
OSHKOSH        CLOUDY    66  60  81 SW18G26   29.64R
$$

WIZ032>034-041-042-053>061-270300-
SOUTHWEST WISCONSIN

CITY           SKY/WX    TMP DP  RH WIND       PRES   REMARKS
LA CROSSE      CLOUDY    63  59  87 W13       29.72R
SPARTA         DRIZZLE   60  58  95 W8        29.71R
VIROQUA        CLOUDY    60  60 100 W15       29.75R
BOSCOBEL       MOCLDY    65  59  81 SW9       29.76R
PRAIRIE DU CHI CLOUDY    64  58  81 W9        29.76S
PLATTEVILLE    MOCLDY    64  60  87 W7        29.79R
$$

WIZ056-057-062-063-064-067-068-270300-
SOUTH CENTRAL WISCONSIN

CITY           SKY/WX    TMP DP  RH WIND       PRES   REMARKS
REEDSBURG      CLOUDY    63  58  85 SW17G24   29.71R
BARABOO/DELLS  CLOUDY    63  56  79 W18G24    29.71R
LONE ROCK      LGT RAIN  63  60  90 W12G17    29.75R FOG
MINERAL POINT  MOCLDY    64  59  82 W10       29.77S
MADISON        PTCLDY    65  57  75 SW9       29.75R
MIDDLETON      PTCLDY    65  59  80 SW12      29.75R
WATERTOWN      CLEAR     64  62  94 SW16      29.74R
MONROE         MOCLDY    64  59  82 SW13      29.78S
JANESVILLE     CLEAR     66  57  72 SW9       29.78R
$$

WIZ051-052-058>065-066-070>072-270300-
SOUTHEAST WISCONSIN

CITY           SKY/WX    TMP DP  RH WIND       PRES   REMARKS
MILWAUKEE      PTCLDY    69  56  62 SW22G31   29.75R
WAUKESHA       CLOUDY    66  57  72 SW12G23   29.76R
MILWAUKEE/TIMM PTCLDY    68  55  64 SW15G21   29.74R
RACINE         MOCLDY    69  57  65 W15G21    29.79R
BURLINGTON     CLEAR     63  58  83 SW12G17   29.79R
KENOSHA        PTCLDY    68  59  73 SW15      29.78R
FOND DU LAC    CLOUDY    66  58  75 SW15G28   29.67R
SHEBOYGAN      CLOUDY    67  59  75 SW22G32   29.68S
WEST BEND      PTCLDY    66  55  68 SW16G25   29.71S
JUNEAU         MOCLDY    63  58  83 SW16      29.74R
$$

LSZ147-162-270300-
LAKE SUPERIOR

STATION/POSITION TIME  TEMP    WIND        PRES    WAVE
                       AIR SEA DIR/SP/G            HT/PER
                 (UTC) (F)     (DEG/KT/KT) (MB)    (FT/S)
W MID LAKE BUOY  0150   41 37  360/  6/  6 1082.0F   0
DEVILS ISLAND    0200   47     310/  3/  4 1081.0F
PORT WING        0100   48      30/  6/  7 1085.0
SAXON HARBOR     0100   46        CALM     1078.0
$$

LMZ867-665-643>646-270300-
LAKE MICHIGAN

STATION/POSITION TIME  TEMP    WIND        PRES    WAVE
                       AIR SEA DIR/SP/G            HT/PER
                 (UTC) (F)     (DEG/KT/KT) (MB)    (FT/S)
CHAMBERS ISLAND  0100   61     120/ 10/ 15 1047.0F
N MID LAKE BUOY  0150   46 37  140/ 10/ 12 1057.0F   2/ 4
NORTHPORT PIER   0100   49     160/  4/  8 1058.0F
SISTER BAY       0148   49     120/ 11/ 16   N/A
ALGOMA LAKESHORE 0038          190/  6/  9   N/A
KEWAUNEE LAKESHO 0200   47     180/  9/ 11 1038.0F
SHEBOYGAN LAKESH 0200          220/ 25/ 33 1052.0R
PORT WASHINGTON  0121          250/ 10/ 25 1064.0R
ATWATER BUOY     0200   67 46  230/ 17/ 21 1086.0R
MILWAUKEE LAKESH 0200   70     230/ 19/ 23   N/A
S MID LAKE BUOY  0150   47 38  200/ 12/ 14 1090.0R   2/ 4
KENOSHA   LAKESH 0000   72     220/ 12/ 16 1071.0R
$$

TC  - TEMPERATURE IN CELSIUS
VSB - VISIBILITY IN STATUTE MILES
WCI - WIND CHILL INDEX
HX  - HEAT INDEX




USA.gov is the U.S. government's official web portal to all federal, state and local government web resources and services.